Regional Weather Roundup
Issued by NWS

Home | Current Version | Previous Version | Graphics & Text | Print | Product List | Glossary On
Versions: 1 2 3 4 5 6 7 8 9 10 11 12 13 14 15 16 17 18 19 20 21 22 23 24 25 26 27 28 29 30 31 32 33 34 35 36 37 38 39 40 41 42 43 44 45 46 47 48 49 50
000
ASUS45 KCYS 011610
RWRWY

WYOMING REGIONAL WEATHER ROUNDUP
NATIONAL WEATHER SERVICE CHEYENNE WY
1000 AM MDT WED OCT 01 2014

NOTE:  "FAIR" INDICATES FEW OR NO CLOUDS BELOW 12,000 FEET
WITH NO SIGNIFICANT WEATHER AND/OR OBSTRUCTIONS TO VISIBILITY.

WYZ001-011700-
YELLOWSTONE NATIONAL PARK

CITY           SKY/WX    TMP DP  RH WIND       PRES   REMARKS
LK YELLOWSTONE   N/A     34  27  75 CALM      30.06R
W YELLOWSTONE  NOT AVBL

$$
WYZ002>013-054>058-071-098>099-011700-
NORTHERN WYOMING

CITY           SKY/WX    TMP DP  RH WIND       PRES   REMARKS
JACKSON        CLOUDY    36  36 100 CALM      30.03
CODY           CLOUDY    41  37  87 N3        29.99R
GREYBULL       CLOUDY    51  34  52 N22G31    29.94R
WORLAND        CLOUDY   N/A N/A N/A MISG      29.95R
SHERIDAN       LGT RAIN  47  41  80 NW12      29.97R
BUFFALO        CLOUDY    44  39  82 N24G31    29.95R
GILLETTE       CLOUDY    47  40  76 NW13      29.93R
HULETT         CLOUDY    46  39  76 NW6       29.92
NEWCASTLE      PTSUNNY   50  39  66 N13G21    29.90

$$
WYZ014>020-022>026-101>103-011700-
CENTRAL WYOMING

CITY           SKY/WX    TMP DP  RH WIND       PRES   REMARKS
BIG PINEY      CLOUDY    40  30  67 N13       30.02R WCI  32
PINEDALE       MOSUNNY   39  32  75 NW16      30.01R WCI  30
DUBOIS         CLOUDY    37  28  70 NW10      29.97R WCI  30
LANDER         CLOUDY    45  38  76 E5        29.97R
RIVERTON       CLOUDY    45  37  73 N10       29.98R
CASPER         LGT RAIN  41  38  89 NE14G20   29.97R FOG
DOUGLAS        LGT RAIN  45  42  89 N10G21    29.95R

$$
WYZ021-027>030-104>119-011700-
SOUTHERN WYOMING

CITY           SKY/WX    TMP DP  RH WIND       PRES   REMARKS
EVANSTON       MOSUNNY   39  28  64 W10       30.07R WCI  32
KEMMERER       MOSUNNY   36  34  93 W17G23    30.04R WCI  25
FORT BRIDGER   FAIR      40  34  77 W16       30.08R WCI  32
ROCK SPRINGS   MOSUNNY   41  30  65 NW8       30.02R
DIXON          CLOUDY    44  39  83 CALM      30.03R
RAWLINS        CLOUDY    40  34  79 SW10      29.99S WCI  33
SARATOGA       CLOUDY    41  34  75 W6        30.01R
LARAMIE        PTSUNNY   47  30  51 W14       29.96S
CHEYENNE       MOSUNNY   56  35  45 SW8       29.93S
TORRINGTON     PTSUNNY   56  45  66 CALM      29.89S
PINE BLUFFS    FAIR      55  37  50 N8        29.92S

$$


USA.gov is the U.S. government's official web portal to all federal, state and local government web resources and services.